Weather Roundup
Issued by NWS Chicago, IL

Home | Current Version | Previous Version | Text Only | Print | Product List | Glossary On
Versions: 1 2 3 4 5 6 7 8 9 10 11 12 13 14 15 16 17 18 19 20 21 22 23 24 25 26 27 28 29 30 31 32 33 34 35 36 37 38 39 40 41 42 43 44 45 46 47 48 49 50
328
NZUS59 KLOT 130008
HRRLOT

CHICAGO AREA WEATHER ROUNDUP
NATIONAL WEATHER SERVICE CHICAGO/ROMEOVILLE IL
600 PM CST FRI FEB 12 2016

NOTE: "FAIR" INDICATES FEW OR NO CLOUDS BELOW 12,000 FEET WITH NO
SIGNIFICANT WEATHER AND/OR OBSTRUCTIONS TO VISIBILITY.

* THESE STATIONS ARE NOT UNDER NWS QUALITY CONTROL. THEY ALSO MAY NOT
  REPORT WEATHER SUCH AS PRECIPITATION OR FOG.

ILZ005-006-012>014-019>023-130100-
NORTHEAST ILLINOIS

CITY           SKY/WX    TMP DP  RH WIND       PRES   REMARKS
OHARE          PTCLDY    17  -2  43 N20       30.26R WCI   1
6HR MIN TEMP:  17; 6HR MAX TEMP:  23;

MIDWAY         PTCLDY    19  -2  39 NW18G29   30.27R WCI   4
6HR MIN TEMP:  19; 6HR MAX TEMP:  25;

AURORA         PTCLDY    19   2  47 NW16G28   30.29R WCI   4
6HR MIN TEMP:  19; 6HR MAX TEMP:  25;

LANSING*       CLEAR     19  -1  40 NW13G21   30.26R WCI   6
JOLIET*        PTCLDY    20   4  49 NW7       30.30R WCI  11
WAUKEGAN       CLEAR     14  -4  44 NW12G24   30.27R WCI   0
6HR MIN TEMP:  14; 6HR MAX TEMP:  21;

DUPAGE AIRPORT CLEAR     16  -3  43 NW15      30.27R WCI   1
6HR MIN TEMP:  16; 6HR MAX TEMP:  22;

WHEELING       CLEAR     16  -2  45 NW17G26   30.29R WCI   0
6HR MIN TEMP:  16; 6HR MAX TEMP:  22;

KANKAKEE*      MOCLDY    21   5  49 NW15G25   30.28R WCI   8
MORRIS*        PTCLDY    19   3  49 NW13G24   30.28R WCI   7
LEWIS AIRPORT* PTCLDY    19  -1  42 NW17G25   30.28R WCI   3
$$

WIZ051-052-058>065-066-070>072-130100-
SOUTHEAST WISCONSIN

CITY           SKY/WX    TMP DP  RH WIND       PRES   REMARKS
MILWAUKEE      PTCLDY    12  -6  44 NW16G29   30.29R WCI  -5
6HR MIN TEMP:  12; 6HR MAX TEMP:  20;

KENOSHA*       CLEAR     13  -4  46 NW23G33   30.28R WCI  -6
RACINE*        PTCLDY    12  -7  42 NW17G29   30.30R WCI  -5
BURLINGTON     CLEAR     11  -6  45 NW17G24   30.29R WCI  -6
WAUKESHA       CLEAR      9  -8  47 NW16G25   30.29R WCI  -9
WEST BEND      CLEAR     10  -9  40 NW18G28   30.28R WCI  -8
$$

INZ001>003-010>013-019-020-130100-
NORTHWEST INDIANA

CITY           SKY/WX    TMP DP  RH WIND       PRES   REMARKS
GARY*          PTCLDY    21  -4  33 NW28      30.26R WCI   3
MICHIGAN CITY* NOT AVBL
RENSSELAER*    NOT AVBL
VALPARAISO     PTCLDY    19   1  45 NW16G26   30.22R WCI   4
$$

LMZ740>746-130100-
SOUTHERN LAKE MICHIGAN

STATION/POSITION TIME  SKY/WX   TEMP WIND        PRES    VSBY
                                AIR  DIR/SP/G
                 (UTC)          (F)  (DEG/KT/KT) (MB)    (MI)
HARRISON CRIB    2300            20  320/ 27/ 29   N/A
BURNHAM HARBOR   0000            19  310/ 17/ 20   N/A
CALUMET HARBOR   2300            20              1022.8R
BURNS HARBOR     2302            21  300/ 20/ 22 1023.0R
MICHIGAN CITY    2300            20  280/ 23/ 31   N/A
$$

ABBREVIATIONS USED IN REMARKS
   TC - TEMPERATURE IN CELSIUS
  WCI - WIND CHILL INDEX
   HX - HEAT INDEX
  VSB - VISIBILITY
$$




USA.gov is the U.S. government's official web portal to all federal, state and local government web resources and services.